Dewpoint
-7 -4 -2 -2 -3 -2 -3 -2 -2 -5 -13 -12 -9 -7 -0 -0 -1 -1 -1 -1 -2 -3 -3 -3 -5 -9 -9 -12 -14 -15 -16 -17 -17 -17 -17 -16 -16 -15 -15 -15 -15 -14 -14 -13
-5 -2 -4 -5 -8 -6 -5 -3 -3 -9 -14 -13 -8 -6 -2 -1 -1 -1 -1 -2 -2 -3 -3 -3 -3 -6 -9 -12 -14 -15 -16 -16 -16 -16 -16 -17 -17 -17 -17 -17 -17 -17 -16 -14
-2 -4 -8 -6 -7 -7 -5 -4 -4 -6 -12 -14 -11 -8 -2 -2 -1 -1 -1 -2 -2 -3 -3 -3 -3 -4 -6 -11 -13 -14 -15 -16 -16 -16 -16 -16 -13 -9 -11 -15 -13 -16 -16 -14
-4 -5 -7 -7 -5 -6 -4 -8 -8 -8 -9 -5 -11 -5 -4 -3 -1 -1 -1 -2 -2 -3 -3 -3 -3 -4 -5 -9 -13 -14 -14 -15 -15 -16 -16 -16 -14 -11 -13 -13 -14 -16 -16 -14
-2 -5 -5 -5 -6 -7 -5 -11 -9 -9 -9 -8 -8 -7 -6 -5 -2 -2 -1 -1 -1 -2 -3 -3 -3 -4 -5 -8 -11 -13 -13 -14 -14 -15 -16 -16 -15 -14 -8 -6 -6 -5 -5 -7
-4 -9 -8 -6 -7 -8 -10 -11 -11 -11 -9 -5 -6 -7 -7 -3 -4 -4 -2 -1 -1 -2 -3 -3 -3 -4 -4 -8 -11 -13 -12 -13 -13 -14 -15 -15 -14 -11 -6 -5 -5 -5 -5 -4
-4 -6 -12 -12 -9 -9 -10 -8 -3 -3 -4 -3 -9 -7 -7 -6 -5 -5 -3 -1 -1 -2 -3 -3 -3 -4 -5 -6 -9 -10 -10 -9 -12 -13 -14 -14 -14 -10 -7 -6 -6 -5 -5 -5
-0 -1 -6 -12 -9 -7 -7 -6 -1 2 1 -2 -10 -7 -7 -10 -7 -4 -4 -2 -2 -3 -3 -3 -3 -3 -4 -5 -6 -7 -8 -8 -11 -13 -14 -13 -15 -13 -9 -7 -6 -5 -5 -5
1 0 -9 -11 -11 -10 -8 -6 -7 -3 -5 -4 -5 -8 -7 -4 -3 -4 -3 -3 -2 -3 -3 -3 -2 -3 -4 -5 -6 -9 -9 -10 -12 -12 -13 -13 -13 -13 -9 -6 -6 -6 -5 -6
-1 2 -9 -11 -13 -12 -9 -9 -5 -5 0 -0 -3 -4 -4 -2 -3 -3 -3 -2 -2 -3 -3 -2 -2 -3 -4 -5 -6 -10 -11 -10 -10 -10 -11 -12 -12 -11 -8 -6 -6 -6 -6 -6
-1 -1 -5 -12 -9 -6 -9 -7 -8 -6 -4 -1 -1 -3 -7 -8 -4 -2 -2 -2 -2 -3 -3 -2 -2 -3 -4 -5 -7 -10 -10 -8 -9 -10 -13 -14 -15 -11 -7 -6 -6 -6 -6 -7
-2 -1 2 -3 -11 -12 -10 -7 -6 -0 -1 -3 -1 -2 -7 -6 -4 -3 -2 -2 -3 -3 -2 -1 -2 -3 -4 -5 -8 -8 -10 -9 -10 -11 -15 -15 -14 -10 -7 -7 -7 -7 -7 -7
-4 -1 3 2 -1 -6 -10 -10 -8 -4 -3 -2 1 -1 -5 -4 -3 -3 -2 -2 -3 -2 -2 -1 -2 -3 -7 -8 -9 -9 -10 -11 -11 -13 -14 -11 -10 -8 -7 -7 -7 -7 -7 -7
-5 -1 0 3 -1 -2 -2 -5 -7 -5 -2 -5 -4 -4 -5 -5 -4 -3 -2 -2 -2 -2 -1 -1 -3 -5 -8 -8 -9 -10 -10 -11 -13 -15 -11 -8 -8 -8 -8 -8 -8 -8 -8 -8
1 2 -1 -1 -1 -1 1 -3 -7 -7 -7 0 1 1 -3 -7 -5 -4 -2 -2 -2 -1 -2 -3 -4 -5 -6 -6 -7 -9 -10 -11 -14 -13 -10 -9 -8 -8 -8 -8 -8 -8 -8 -8
2 5 3 4 2 1 1 1 0 -1 -5 -6 -5 -7 -11 -12 -9 -5 -3 -2 -1 -2 -3 -4 -5 -6 -7 -8 -7 -10 -10 -13 -14 -11 -11 -10 -9 -9 -9 -9 -9 -9 -9 -8
3 5 5 4 1 1 4 3 -0 -1 -1 -2 -4 -7 -11 -9 -8 -6 -3 -2 -2 -2 -4 -6 -7 -7 -8 -8 -10 -10 -11 -15 -13 -11 -10 -10 -10 -10 -10 -10 -10 -10 -10 -9
4 4 5 5 3 5 -2 -5 -3 -3 -7 -8 -9 -9 -9 -9 -5 -5 -4 -3 -2 -4 -5 -6 -7 -8 -8 -9 -10 -11 -14 -14 -12 -11 -11 -10 -10 -11 -10 -10 -10 -10 -11 -11
3 4 5 4 4 0 -1 -3 -4 -3 -2 -5 -6 -8 -6 -4 -4 -3 -3 -3 -4 -5 -6 -7 -8 -9 -9 -9 -11 -13 -13 -12 -11 -11 -10 -11 -10 -11 -11 -11 -11 -11 -11 -12
3 2 3 5 4 3 -3 -5 -7 -8 -2 -6 -8 -7 -5 -5 -4 -2 -4 -4 -5 -7 -8 -9 -9 -9 -10 -11 -14 -14 -12 -12 -12 -12 -11 -11 -11 -11 -11 -11 -12 -12 -12 -12
3 3 4 4 4 2 -3 -7 -8 -2 -0 -5 -6 -6 -5 -3 -2 -4 -6 -7 -8 -8 -9 -9 -10 -10 -11 -14 -15 -13 -12 -12 -14 -13 -12 -12 -12 -12 -12 -12 -12 -12 -12 -12
3 3 3 4 5 4 -4 -6 -4 -3 -2 -3 -3 -3 -2 -3 -5 -6 -7 -8 -8 -9 -9 -10 -11 -12 -14 -16 -14 -13 -13 -16 -17 -14 -13 -13 -13 -13 -13 -12 -12 -12 -12 -12
3 5 4 1 1 -1 -5 -3 -3 -3 -2 -2 -2 -2 -3 -5 -6 -7 -8 -8 -8 -9 -10 -11 -12 -14 -15 -15 -14 -13 -15 -17 -16 -16 -18 -15 -16 -13 -12 -12 -12 -12 -12 -12
-2 -3 3 0 -2 -2 -2 -1 -2 -2 -2 -3 -2 -4 -5 -6 -7 -7 -8 -9 -10 -10 -11 -12 -13 -13 -13 -15 -16 -16 -20 -18 -15 -19 -20 -20 -18 -16 -13 -13 -13 -13 -13 -13
-0 -2 -1 0 -1 -1 -1 -1 -2 -2 -3 -3 -4 -5 -6 -7 -7 -8 -9 -10 -10 -11 -12 -13 -13 -13 -13 -14 -16 -20 -19 -18 -16 -20 -20 -17 -13 -15 -13 -13 -14 -14 -14 -15
-3 -2 2 2 1 0 -1 -1 -2 -2 -3 -4 -5 -5 -6 -7 -7 -8 -9 -10 -11 -11 -12 -12 -13 -13 -14 -16 -19 -20 -19 -20 -20 -18 -15 -15 -14 -14 -14 -14 -13 -14 -14 -16
Wind_Speed
7 8 11 14 15 14 9 10 11 4 4 6 9 10 14 19 19 19 18 16 14 13 11 9 8 7 6 6 7 8 9 9 10 11 14 14 16 17 17 18 19 19 19 20
6 14 13 7 8 11 12 12 11 4 3 6 6 9 14 19 20 22 21 19 18 16 14 10 8 6 5 6 7 9 12 14 15 16 17 17 17 16 17 18 19 20 20 20
16 2 2 13 11 13 14 13 9 10 4 3 6 11 16 17 18 22 22 20 19 18 16 12 9 6 4 5 8 10 11 13 15 16 16 17 16 15 16 19 18 21 21 22
13 16 7 12 15 13 12 10 12 11 8 11 7 5 16 17 19 21 24 24 23 20 17 14 11 7 4 3 6 8 10 12 14 16 17 18 17 17 19 18 19 19 19 19
10 11 18 14 12 14 3 2 8 8 10 9 12 8 4 16 16 22 26 27 25 23 20 18 14 9 6 3 4 6 8 10 12 14 15 16 17 17 16 16 19 18 18 18
16 2 10 14 9 14 9 8 5 3 5 11 18 13 12 11 18 17 25 27 27 25 22 18 14 10 6 1 2 4 6 8 11 13 16 17 18 18 16 16 16 16 16 17
16 15 5 9 9 9 15 11 5 7 7 10 2 10 15 6 5 8 22 29 29 26 24 21 17 12 8 4 1 2 5 8 12 14 16 18 19 18 17 17 17 19 17 18
14 10 20 16 14 9 22 19 8 11 13 11 5 9 3 3 7 8 14 23 26 27 25 22 18 14 9 5 2 1 4 6 11 14 16 17 19 17 17 16 17 16 18 19
9 10 2 4 10 12 9 15 17 11 3 5 10 11 6 7 7 12 15 23 27 27 25 22 18 14 10 6 3 2 4 8 11 14 16 17 18 18 17 16 15 16 17 18
4 6 4 6 7 10 12 8 7 10 9 16 12 12 11 12 14 13 16 24 26 26 25 22 19 15 11 7 3 4 7 8 10 13 15 17 18 17 16 14 15 17 18 19
10 5 4 5 12 16 10 13 8 9 15 13 15 12 5 4 14 17 19 23 27 28 26 23 20 15 11 7 4 5 6 7 11 14 17 19 18 17 15 14 15 17 18 19
10 2 9 15 2 5 14 18 20 8 12 6 6 17 6 6 10 15 17 23 26 26 25 23 20 16 11 7 4 4 6 8 13 17 19 18 16 16 14 15 16 17 18 18
8 7 10 7 9 4 7 15 16 16 2 17 11 11 4 8 8 15 18 23 25 26 24 22 20 17 14 8 5 5 7 11 14 17 17 15 14 14 14 15 16 16 18 18
8 8 12 17 12 2 7 15 13 17 12 18 17 21 14 11 12 15 19 23 26 27 26 24 20 17 12 8 6 5 8 12 15 15 13 12 12 13 14 15 16 17 18 18
2 7 12 18 20 19 12 14 19 23 27 13 21 24 30 19 16 18 20 22 26 28 27 24 21 15 11 7 4 3 7 11 13 11 11 11 12 13 14 15 16 17 17 17
2 4 10 19 26 24 22 22 27 24 24 23 23 27 19 6 9 17 19 23 26 27 26 23 19 16 12 8 5 5 7 10 10 9 10 11 12 13 14 15 16 17 17 18
10 5 4 7 17 16 14 31 26 28 27 21 19 26 15 9 11 15 17 23 26 27 26 23 19 15 11 7 3 3 6 8 8 8 9 10 12 13 14 15 16 17 17 18
6 11 6 4 6 7 11 8 24 26 22 20 17 12 9 9 8 8 13 20 24 26 25 22 18 14 10 5 3 3 5 6 6 7 8 10 12 13 14 15 16 17 18 19
10 5 3 4 7 9 15 11 13 13 26 25 23 18 11 14 13 7 9 18 24 26 23 19 16 12 8 4 1 2 4 4 5 7 8 10 12 13 14 16 17 17 18 19
16 14 7 7 6 8 7 4 16 7 17 13 22 15 13 17 8 6 17 23 25 24 21 19 15 11 6 3 0 1 2 3 5 8 9 11 12 13 14 16 17 18 18 19
6 5 13 12 11 7 9 8 13 11 4 9 15 18 21 12 1 27 25 24 22 21 20 16 12 10 6 2 1 2 2 4 7 9 10 10 12 13 13 15 16 18 18 19
12 8 6 6 8 12 15 15 13 5 4 10 12 17 20 17 24 28 26 25 22 20 18 14 11 8 4 3 3 3 2 5 8 8 9 10 12 12 13 14 15 16 16 18
7 7 7 9 7 3 17 4 7 6 12 11 16 20 22 27 29 27 25 23 20 18 15 12 10 7 5 4 3 2 3 5 6 7 9 10 12 12 13 13 15 15 15 17
11 7 3 2 10 9 12 6 3 4 10 15 17 23 25 29 28 26 24 22 19 16 13 11 10 9 7 4 3 2 3 4 5 8 10 11 12 14 13 12 13 13 14 16
8 10 12 11 11 6 11 11 8 9 14 19 21 23 25 28 26 25 23 20 17 15 13 11 10 9 7 5 2 2 3 4 4 8 10 11 11 13 13 12 13 12 12 14
9 9 10 8 10 12 14 20 17 19 22 24 27 24 21 22 25 23 20 18 16 14 13 12 10 9 7 4 1 2 2 4 6 7 9 10 11 11 12 13 14 14 19 20
Wind_Direction
207 232 222 229 231 268 271 250 249 224 131 235 222 205 180 181 195 192 190 185 179 170 160 144 133 117 90 68 49 37 28 20 12 7 6 4 3 358 354 350 345 341 337 332
214 240 244 243 229 228 230 237 235 223 187 255 203 201 182 189 199 197 196 193 187 177 171 160 143 122 94 60 41 32 23 17 14 10 7 3 357 354 352 348 345 342 340 337
236 252 294 211 209 214 225 232 229 259 170 226 209 218 197 200 206 206 207 203 195 190 181 171 159 141 100 55 41 32 22 15 11 7 2 360 357 353 345 345 341 338 337 336
240 232 202 201 221 213 228 228 242 245 240 247 216 275 191 187 202 207 204 202 198 190 184 179 172 158 133 69 44 31 23 15 6 1 357 354 353 346 339 338 333 331 330 329
210 205 208 211 215 199 233 204 211 228 243 285 221 259 195 184 208 210 207 202 200 193 187 183 177 167 151 93 48 30 19 6 356 350 348 346 344 340 335 333 332 331 332 333
259 261 214 224 217 200 142 142 142 199 257 248 242 228 261 183 217 209 205 202 200 194 188 184 180 171 165 123 44 19 8 352 349 347 346 346 346 343 336 331 332 329 330 327
221 221 189 174 173 188 196 183 203 223 216 249 77 220 254 154 172 210 197 197 196 192 187 185 184 181 177 177 136 6 2 352 347 348 347 346 344 342 337 334 331 331 326 324
210 209 207 186 215 197 205 204 212 239 247 253 161 231 242 127 183 183 190 194 191 190 190 189 188 185 183 179 176 357 352 350 343 341 343 344 341 338 336 332 331 328 326 331
207 229 226 205 200 194 184 227 240 268 249 266 243 231 197 174 182 189 184 183 189 191 191 190 188 185 182 177 202 296 336 334 335 340 340 340 339 337 334 332 331 326 328 325
220 256 181 161 198 222 233 185 195 217 239 239 253 254 260 194 204 185 183 188 189 191 191 191 189 185 181 180 202 300 316 333 336 339 338 338 337 336 333 332 332 332 328 328
219 232 138 166 210 208 199 214 229 255 232 251 256 250 69 236 187 190 193 192 190 191 192 190 188 184 179 178 213 285 320 331 330 335 337 338 339 338 335 334 335 332 332 327
215 226 241 228 202 295 261 232 213 216 206 237 266 257 132 144 178 191 190 193 192 192 191 190 185 178 177 182 226 269 311 325 331 334 336 337 340 340 337 337 337 335 333 332
160 202 237 241 224 195 237 227 240 228 258 225 226 250 159 161 183 194 193 190 191 191 188 185 182 183 194 207 232 269 308 324 332 332 334 337 339 341 340 341 337 339 333 332
217 203 217 243 261 10 226 222 228 236 229 242 240 264 244 210 209 198 198 194 192 190 187 184 180 186 195 216 242 280 311 327 332 333 335 335 338 340 341 342 341 336 335 332
45 247 240 257 264 263 240 258 223 217 230 217 243 243 253 251 223 210 201 196 191 189 187 183 177 172 172 179 203 274 315 327 330 333 334 336 340 342 343 343 342 337 336 333
335 228 230 240 249 250 251 253 239 244 244 237 247 256 260 255 210 213 204 194 192 188 186 179 171 165 167 176 181 287 318 326 331 334 335 339 342 345 345 342 341 339 338 336
173 175 214 243 242 251 254 235 245 247 244 239 235 241 252 198 208 210 198 196 190 184 179 171 163 162 164 167 223 290 315 329 336 336 338 343 344 346 344 342 341 339 339 338
199 193 188 247 177 210 241 238 224 237 238 227 238 230 221 222 177 191 200 193 181 175 170 161 158 157 158 182 244 310 329 335 343 340 343 345 347 346 344 342 341 341 339 339
196 210 216 224 224 297 287 231 210 210 244 238 243 239 184 154 126 85 166 173 168 165 160 152 152 152 161 175 258 328 345 355 353 347 346 348 347 345 343 342 342 340 340 340
199 219 208 222 228 233 259 241 199 187 262 225 211 201 177 164 201 148 157 155 152 151 146 146 150 153 154 141 185 44 13 3 353 348 351 350 346 343 342 341 341 340 341 339
199 210 213 222 240 242 249 167 169 196 239 175 194 179 177 187 325 144 148 145 144 142 143 145 144 139 146 154 87 66 47 358 352 357 354 352 348 342 341 341 341 342 341 342
193 195 208 224 231 245 177 163 191 183 112 157 159 156 150 131 131 139 143 141 143 144 144 144 139 137 146 129 99 99 32 359 359 2 359 354 348 349 345 344 344 345 342 344
222 209 231 213 231 43 192 268 202 178 156 155 149 148 147 141 142 145 145 146 147 145 143 143 143 146 135 120 113 98 10 3 8 3 1 354 353 353 350 351 345 346 349 346
219 192 218 259 234 221 215 221 195 235 154 148 155 151 149 143 146 147 149 150 148 146 145 149 143 134 133 137 109 67 6 18 6 1 0 359 358 360 355 356 348 350 347 345
219 180 222 236 236 240 245 217 205 185 142 143 146 149 149 147 149 151 153 151 149 150 155 148 144 144 141 135 111 27 31 38 16 2 2 0 360 359 356 353 345 346 343 345
196 220 204 227 190 206 244 199 185 160 154 149 147 146 147 151 151 152 150 151 153 155 152 148 149 146 143 143 127 71 46 27 18 7 1 0 4 358 353 350 346 340 332 336
Height
1518 1514 1508 1502 1502 1499 1503 1501 1498 1496 1505 1506 1503 1505 1521 1528 1533 1535 1539 1542 1544 1547 1548 1547 1546 1546 1547 1547 1546 1545 1544 1543 1542 1540 1537 1535 1532 1529 1526 1523 1520 1517 1514 1511
1516 1507 1501 1504 1506 1507 1504 1502 1498 1498 1505 1507 1508 1506 1515 1522 1524 1528 1532 1536 1540 1543 1545 1545 1546 1546 1546 1545 1545 1544 1542 1540 1539 1537 1535 1533 1531 1528 1525 1522 1518 1515 1511 1508
1504 1497 1503 1506 1507 1506 1502 1500 1498 1501 1503 1506 1505 1502 1510 1516 1521 1524 1527 1531 1535 1539 1542 1544 1544 1545 1544 1544 1543 1542 1540 1539 1537 1535 1534 1531 1529 1526 1523 1519 1516 1512 1508 1504
1502 1497 1502 1502 1501 1502 1500 1497 1500 1501 1505 1499 1502 1488 1491 1501 1511 1517 1522 1525 1530 1533 1538 1542 1543 1543 1542 1541 1540 1539 1538 1537 1535 1533 1531 1529 1527 1524 1521 1517 1514 1511 1506 1503
1492 1495 1497 1497 1495 1500 1496 1502 1501 1501 1502 1503 1497 1500 1468 1491 1502 1504 1512 1519 1524 1529 1532 1537 1540 1540 1539 1538 1538 1537 1536 1535 1533 1532 1530 1528 1525 1522 1519 1515 1511 1508 1504 1500
1490 1497 1493 1490 1494 1499 1504 1504 1506 1506 1505 1504 1490 1493 1465 1483 1484 1491 1505 1513 1518 1523 1528 1532 1536 1536 1536 1535 1535 1535 1534 1533 1532 1530 1527 1524 1521 1518 1515 1513 1509 1505 1501 1498
1491 1491 1494 1496 1497 1500 1498 1500 1500 1506 1505 1492 1490 1488 1466 1476 1484 1486 1494 1505 1512 1519 1523 1527 1530 1532 1533 1533 1532 1532 1532 1531 1529 1527 1525 1521 1518 1515 1513 1509 1505 1501 1497 1492
1481 1485 1484 1486 1482 1487 1489 1489 1482 1494 1483 1476 1497 1487 1466 1478 1483 1489 1494 1501 1508 1514 1518 1522 1526 1529 1530 1530 1531 1530 1530 1529 1527 1525 1523 1519 1516 1513 1509 1505 1501 1499 1494 1489
1475 1473 1475 1481 1482 1484 1490 1490 1480 1489 1500 1495 1468 1465 1476 1483 1486 1488 1491 1496 1502 1509 1514 1519 1523 1525 1527 1529 1529 1528 1528 1526 1525 1523 1520 1517 1513 1509 1506 1502 1499 1496 1492 1486
1471 1478 1478 1482 1486 1485 1481 1478 1495 1492 1496 1489 1461 1458 1457 1475 1478 1483 1487 1491 1498 1505 1512 1516 1519 1522 1524 1525 1525 1525 1525 1523 1522 1519 1517 1513 1509 1506 1503 1499 1495 1491 1488 1482
1469 1476 1483 1484 1479 1470 1482 1480 1480 1475 1472 1471 1467 1452 1451 1455 1467 1475 1481 1487 1493 1500 1506 1511 1516 1518 1520 1521 1521 1521 1521 1520 1519 1516 1513 1509 1505 1502 1500 1496 1491 1488 1483 1479
1468 1474 1475 1472 1473 1477 1471 1470 1473 1477 1479 1484 1477 1456 1458 1464 1467 1472 1478 1484 1490 1496 1502 1507 1511 1514 1516 1517 1518 1518 1517 1517 1516 1514 1509 1506 1501 1499 1497 1492 1487 1484 1480 1476
1467 1475 1480 1470 1473 1478 1476 1469 1467 1469 1478 1470 1473 1454 1458 1464 1467 1470 1474 1479 1485 1491 1498 1503 1508 1510 1511 1513 1514 1514 1513 1512 1511 1510 1507 1503 1499 1496 1493 1488 1484 1481 1477 1474
1466 1463 1460 1457 1451 1458 1469 1466 1469 1470 1474 1457 1456 1454 1452 1462 1463 1467 1469 1473 1479 1486 1492 1498 1503 1505 1508 1509 1511 1510 1510 1508 1508 1506 1504 1501 1497 1493 1489 1485 1481 1479 1475 1471
1469 1471 1462 1459 1456 1457 1469 1462 1461 1464 1457 1466 1455 1463 1448 1447 1456 1460 1464 1468 1474 1481 1488 1493 1498 1502 1504 1507 1508 1508 1507 1505 1504 1503 1502 1498 1493 1490 1486 1483 1480 1476 1472 1469
1480 1473 1470 1469 1460 1460 1463 1464 1453 1452 1453 1447 1443 1440 1437 1441 1448 1456 1458 1464 1469 1477 1485 1489 1493 1497 1501 1504 1505 1505 1503 1502 1502 1500 1498 1494 1491 1487 1484 1481 1478 1474 1470 1466
1473 1471 1474 1460 1452 1456 1462 1442 1447 1438 1437 1439 1438 1430 1436 1442 1447 1451 1454 1460 1465 1473 1482 1486 1490 1494 1498 1499 1500 1501 1500 1498 1498 1497 1495 1491 1488 1484 1482 1479 1476 1472 1468 1464
1464 1463 1465 1456 1453 1455 1425 1423 1427 1429 1429 1432 1430 1429 1435 1438 1444 1446 1450 1457 1463 1472 1479 1482 1486 1490 1493 1495 1496 1497 1496 1495 1495 1494 1492 1488 1485 1482 1479 1476 1473 1469 1465 1461
1460 1462 1453 1448 1447 1433 1424 1422 1426 1425 1417 1420 1421 1428 1437 1442 1444 1448 1451 1456 1463 1470 1476 1480 1484 1487 1489 1492 1493 1494 1493 1494 1493 1491 1489 1485 1482 1479 1477 1474 1470 1467 1463 1459
1452 1451 1450 1451 1440 1433 1411 1412 1419 1424 1418 1414 1417 1422 1434 1438 1434 1443 1453 1458 1464 1469 1471 1476 1480 1483 1486 1488 1490 1490 1492 1492 1490 1487 1485 1482 1480 1477 1475 1472 1468 1465 1461 1456
1445 1447 1442 1439 1432 1418 1409 1417 1423 1423 1411 1410 1414 1417 1427 1432 1435 1440 1453 1460 1463 1467 1470 1474 1478 1482 1484 1485 1487 1489 1490 1489 1486 1483 1482 1480 1478 1475 1472 1469 1466 1462 1458 1454
1434 1436 1435 1435 1427 1420 1407 1416 1413 1408 1412 1414 1416 1418 1427 1434 1440 1445 1453 1456 1462 1467 1469 1473 1476 1480 1481 1482 1485 1488 1487 1484 1482 1481 1480 1478 1476 1473 1470 1467 1463 1460 1456 1452
1424 1416 1410 1413 1404 1410 1408 1407 1410 1410 1409 1414 1417 1420 1426 1433 1438 1445 1451 1458 1464 1466 1469 1473 1476 1477 1479 1481 1484 1485 1483 1482 1480 1479 1477 1475 1472 1470 1467 1464 1461 1457 1453 1450
1412 1414 1416 1417 1403 1406 1410 1410 1410 1413 1408 1411 1419 1422 1427 1431 1438 1445 1453 1458 1462 1466 1468 1472 1474 1476 1479 1480 1480 1481 1480 1480 1478 1476 1475 1473 1469 1466 1464 1462 1459 1455 1452 1448
1403 1409 1403 1405 1403 1407 1406 1406 1409 1411 1409 1413 1420 1424 1428 1432 1440 1446 1452 1456 1461 1464 1467 1471 1473 1476 1478 1478 1478 1478 1478 1478 1477 1475 1473 1470 1468 1464 1462 1460 1457 1453 1450 1446
1400 1396 1399 1396 1397 1399 1398 1402 1407 1408 1411 1414 1418 1425 1431 1435 1440 1445 1451 1455 1459 1463 1466 1470 1473 1474 1475 1476 1476 1477 1476 1476 1475 1474 1472 1469 1466 1464 1462 1459 1456 1454 1448 1444